| time (UTC) | temp C | wind direction | speed KPH | gust KPH | rain 1hr cm | rain 24hr cm | rain mn cm | humidity % | barometer mb |
| 20260505153320 | 23 | 207 | 17.7 | 25.7 | 0.00 | 0.00 | 0.00 | 78 | 1004.0 |
| 20260505152817 | 23 | 186 | 14.5 | 27.4 | 0.00 | 0.00 | 0.00 | 79 | 1004.0 |
| 20260505152314 | 23 | 147 | 17.7 | 25.7 | 0.00 | 0.00 | 0.00 | 79 | 1004.2 |
| 20260505151813 | 23 | 208 | 14.5 | 27.4 | 0.00 | 0.00 | 0.00 | 79 | 1004.0 |
| 20260505151310 | 23 | 215 | 20.9 | 29.0 | 0.00 | 0.00 | 0.00 | 79 | 1004.0 |
| 20260505150807 | 23 | 203 | 25.7 | 29.0 | 0.00 | 0.00 | 0.00 | 79 | 1004.1 |
| 20260505150305 | 23 | 201 | 19.3 | 27.4 | 0.00 | 0.00 | 0.00 | 80 | 1004.1 |
| 20260505140229 | 22 | 196 | 14.5 | 25.7 | 0.00 | 0.00 | 0.00 | 84 | 1003.9 |
| 20260505130153 | 21 | 181 | 12.9 | 20.9 | 0.00 | 0.00 | 0.00 | 85 | 1003.9 |
| 20260505124642 | 21 | 189 | 17.7 | 22.5 | 0.00 | 0.00 | 0.00 | 86 | 1003.6 |
| 20260505124139 | 21 | 179 | 16.1 | 22.5 | 0.00 | 0.00 | 0.00 | 86 | 1003.7 |
| 20260505123635 | 21 | 150 | 11.3 | 20.9 | 0.00 | 0.00 | 0.00 | 86 | 1003.7 |
| 20260505123132 | 21 | 190 | 12.9 | 22.5 | 0.00 | 0.00 | 0.00 | 85 | 1003.8 |
| 20260505122629 | 21 | 165 | 16.1 | 22.5 | 0.00 | 0.00 | 0.00 | 85 | 1003.7 |
| 20260505122126 | 21 | 200 | 11.3 | 20.9 | 0.00 | 0.00 | 0.00 | 85 | 1003.5 |
| 20260505121622 | 21 | 174 | 12.9 | 24.1 | 0.00 | 0.00 | 0.00 | 85 | 1003.3 |
| 20260505121119 | 21 | 194 | 16.1 | 22.5 | 0.00 | 0.00 | 0.00 | 85 | 1003.4 |
| 20260505120615 | 21 | 162 | 22.5 | 27.4 | 0.00 | 0.00 | 0.00 | 85 | 1003.2 |
| 20260505120112 | 21 | 143 | 11.3 | 27.4 | 0.00 | 0.00 | 0.00 | 86 | 1003.3 |
| 20260505115606 | 21 | 162 | 11.3 | 24.1 | 0.00 | 0.00 | 0.00 | 86 | 1003.4 |
| 20260505115104 | 20 | 180 | 17.7 | 24.1 | 0.00 | 0.00 | 0.00 | 86 | 1003.5 |
| 20260505114600 | 20 | 202 | 9.7 | 20.9 | 0.00 | 0.00 | 0.00 | 85 | 1003.2 |
| 20260505114056 | 20 | 153 | 12.9 | 20.9 | 0.00 | 0.00 | 0.00 | 85 | 1003.2 |
| 20260505113553 | 20 | 180 | 14.5 | 24.1 | 0.00 | 0.00 | 0.00 | 85 | 1003.1 |
| 20260505113050 | 20 | 178 | 14.5 | 22.5 | 0.00 | 0.00 | 0.00 | 86 | 1003.0 |
| 20260505112546 | 20 | 200 | 11.3 | 30.6 | 0.00 | 0.00 | 0.00 | 86 | 1003.2 |
| 20260505112045 | 20 | 193 | 16.1 | 22.5 | 0.00 | 0.00 | 0.00 | 86 | 1002.9 |
| 20260505111538 | 20 | 149 | 11.3 | 22.5 | 0.00 | 0.00 | 0.00 | 86 | 1002.7 |
| 20260505111035 | 20 | 178 | 16.1 | 20.9 | 0.00 | 0.00 | 0.00 | 85 | 1002.5 |
| 20260505110531 | 20 | 165 | 17.7 | 27.4 | 0.00 | 0.00 | 0.00 | 85 | 1002.8 |
| 20260505102004 | 21 | 170 | 14.5 | 38.6 | 0.00 | 0.00 | 0.00 | 85 | 1003.2 |
| 20260505101501 | 21 | 202 | 17.7 | 27.4 | 0.00 | 0.00 | 0.00 | 85 | 1002.9 |
| 20260505100958 | 21 | 156 | 14.5 | 22.5 | 0.00 | 0.00 | 0.00 | 85 | 1003.0 |
| 20260505100455 | 21 | 165 | 22.5 | 25.7 | 0.00 | 0.00 | 0.00 | 84 | 1003.3 |
| 20260505095951 | 21 | 164 | 16.1 | 27.4 | 0.00 | 0.00 | 0.00 | 84 | 1003.3 |
| 20260505095448 | 21 | 188 | 22.5 | 25.7 | 0.00 | 0.00 | 0.00 | 84 | 1003.3 |
| 20260505094944 | 21 | 192 | 19.3 | 29.0 | 0.00 | 0.00 | 0.00 | 84 | 1003.4 |
| 20260505094441 | 21 | 169 | 22.5 | 27.4 | 0.00 | 0.00 | 0.00 | 84 | 1003.3 |
| 20260505093937 | 21 | 178 | 14.5 | 25.7 | 0.00 | 0.00 | 0.00 | 85 | 1003.6 |
| 20260505093434 | 21 | 221 | 8.0 | 27.4 | 0.00 | 0.00 | 0.00 | 85 | 1003.6 |
| 20260505092931 | 21 | 221 | 14.5 | 20.9 | 0.00 | 0.00 | 0.00 | 84 | 1003.7 |
| 20260505092429 | 21 | 173 | 16.1 | 24.1 | 0.00 | 0.00 | 0.00 | 85 | 1003.4 |
| 20260505091926 | 21 | 186 | 19.3 | 27.4 | 0.00 | 0.00 | 0.00 | 85 | 1003.5 |
| 20260505091424 | 21 | 183 | 11.3 | 20.9 | 0.00 | 0.00 | 0.00 | 84 | 1003.4 |
| 20260505090921 | 21 | 173 | 16.1 | 29.0 | 0.00 | 0.00 | 0.00 | 85 | 1003.5 |
| 20260505090420 | 21 | 145 | 14.5 | 24.1 | 0.00 | 0.00 | 0.00 | 85 | 1003.6 |
| 20260505085917 | 21 | 188 | 19.3 | 25.7 | 0.00 | 0.00 | 0.00 | 84 | 1003.4 |
| 20260505085415 | 21 | 200 | 17.7 | 27.4 | 0.00 | 0.00 | 0.00 | 84 | 1003.3 |
| 20260505084912 | 21 | 177 | 19.3 | 27.4 | 0.00 | 0.00 | 0.00 | 84 | 1003.5 |
| 20260505084410 | 20 | 199 | 16.1 | 30.6 | 0.00 | 0.00 | 0.00 | 85 | 1003.4 |
| 20260505083908 | 20 | 165 | 20.9 | 24.1 | 0.00 | 0.00 | 0.00 | 85 | 1003.5 |
| 20260505083405 | 20 | 122 | 12.9 | 22.5 | 0.00 | 0.00 | 0.00 | 85 | 1003.4 |
| 20260505082901 | 20 | 182 | 14.5 | 29.0 | 0.00 | 0.00 | 0.00 | 85 | 1003.3 |
| 20260505082357 | 20 | 201 | 22.5 | 27.4 | 0.00 | 0.00 | 0.00 | 85 | 1003.4 |
| 20260505081854 | 20 | 177 | 16.1 | 25.7 | 0.00 | 0.00 | 0.00 | 85 | 1003.5 |
| 20260505081351 | 20 | 177 | 20.9 | 24.1 | 0.00 | 0.00 | 0.00 | 85 | 1003.4 |
| 20260505080848 | 20 | 173 | 19.3 | 24.1 | 0.00 | 0.00 | 0.00 | 85 | 1003.5 |
| 20260505080344 | 20 | 145 | 12.9 | 22.5 | 0.00 | 0.00 | 0.00 | 84 | 1003.6 |
| 20260505075839 | 20 | 204 | 11.3 | 22.5 | 0.00 | 0.00 | 0.00 | 84 | 1003.6 |
| 20260505075336 | 20 | 173 | 19.3 | 27.4 | 0.00 | 0.00 | 0.00 | 84 | 1003.8 |
| 20260505074833 | 20 | 172 | 9.7 | 25.7 | 0.00 | 0.00 | 0.00 | 84 | 1003.8 |
| 20260505074330 | 20 | 186 | 12.9 | 24.1 | 0.00 | 0.00 | 0.00 | 84 | 1004.0 |
| 20260505073828 | 20 | 183 | 17.7 | 25.7 | 0.00 | 0.00 | 0.00 | 84 | 1004.0 |
| 20260505073326 | 20 | 197 | 14.5 | 25.7 | 0.00 | 0.00 | 0.00 | 83 | 1004.0 |
| 20260505072822 | 20 | 148 | 22.5 | 27.4 | 0.00 | 0.00 | 0.00 | 83 | 1004.1 |
| 20260505072319 | 21 | 162 | 14.5 | 24.1 | 0.00 | 0.00 | 0.00 | 82 | 1004.2 |
| 20260505071815 | 21 | 178 | 20.9 | 25.7 | 0.00 | 0.00 | 0.00 | 82 | 1004.2 |
| 20260505071311 | 21 | 216 | 12.9 | 22.5 | 0.00 | 0.00 | 0.00 | 82 | 1004.2 |
| 20260505070810 | 21 | 185 | 20.9 | 25.7 | 0.00 | 0.00 | 0.00 | 81 | 1004.3 |
| 20260505070306 | 21 | 169 | 14.5 | 24.1 | 0.00 | 0.00 | 0.00 | 81 | 1004.4 |
| 20260505065800 | 21 | 203 | 14.5 | 22.5 | 0.00 | 0.00 | 0.00 | 81 | 1004.4 |
| 20260505065258 | 21 | 185 | 14.5 | 24.1 | 0.00 | 0.00 | 0.00 | 81 | 1004.3 |
| 20260505064755 | 21 | 167 | 20.9 | 27.4 | 0.00 | 0.00 | 0.00 | 81 | 1004.3 |
| 20260505064252 | 21 | 180 | 14.5 | 25.7 | 0.00 | 0.00 | 0.00 | 80 | 1004.4 |
| 20260505063750 | 21 | 168 | 19.3 | 25.7 | 0.00 | 0.00 | 0.00 | 80 | 1004.3 |
| 20260505063246 | 21 | 198 | 19.3 | 29.0 | 0.00 | 0.00 | 0.00 | 80 | 1004.3 |
| 20260505062743 | 21 | 188 | 17.7 | 29.0 | 0.00 | 0.00 | 0.00 | 80 | 1004.3 |
| 20260505062240 | 21 | 159 | 17.7 | 24.1 | 0.00 | 0.00 | 0.00 | 80 | 1004.7 |
| 20260505061737 | 21 | 191 | 19.3 | 24.1 | 0.00 | 0.00 | 0.00 | 79 | 1004.5 |
| 20260505061235 | 21 | 164 | 20.9 | 27.4 | 0.00 | 0.00 | 0.00 | 79 | 1004.7 |
| 20260505060732 | 21 | 167 | 17.7 | 24.1 | 0.00 | 0.00 | 0.00 | 79 | 1004.7 |
| 20260505060229 | 21 | 159 | 16.1 | 24.1 | 0.00 | 0.00 | 0.00 | 79 | 1004.6 |
| 20260505055724 | 21 | 191 | 14.5 | 25.7 | 0.00 | 0.00 | 0.00 | 78 | 1004.7 |
| 20260505055221 | 21 | 210 | 11.3 | 25.7 | 0.00 | 0.00 | 0.00 | 78 | 1004.7 |
| 20260505054718 | 21 | 181 | 14.5 | 25.7 | 0.00 | 0.00 | 0.00 | 78 | 1004.8 |
| 20260505054216 | 21 | 169 | 14.5 | 25.7 | 0.00 | 0.00 | 0.00 | 77 | 1004.9 |
| 20260505053714 | 21 | 165 | 11.3 | 20.9 | 0.00 | 0.00 | 0.00 | 77 | 1004.9 |
| 20260505053210 | 21 | 199 | 12.9 | 24.1 | 0.00 | 0.00 | 0.00 | 77 | 1005.0 |
| 20260505052708 | 21 | 171 | 16.1 | 27.4 | 0.00 | 0.00 | 0.00 | 76 | 1004.9 |
| 20260505052204 | 21 | 173 | 20.9 | 25.7 | 0.00 | 0.00 | 0.00 | 76 | 1004.9 |
| 20260505051701 | 21 | 154 | 12.9 | 20.9 | 0.00 | 0.00 | 0.00 | 76 | 1005.0 |
| 20260505051159 | 21 | 152 | 14.5 | 24.1 | 0.00 | 0.00 | 0.00 | 76 | 1005.0 |
| 20260505050657 | 21 | 165 | 16.1 | 24.1 | 0.00 | 0.00 | 0.00 | 76 | 1005.2 |
| 20260505050156 | 21 | 180 | 11.3 | 24.1 | 0.00 | 0.00 | 0.00 | 76 | 1005.0 |
| 20260505041631 | 21 | 162 | 17.7 | 24.1 | 0.00 | 0.00 | 0.00 | 74 | 1005.3 |
| 20260505041128 | 21 | 162 | 16.1 | 20.9 | 0.00 | 0.00 | 0.00 | 74 | 1005.6 |
| 20260505040625 | 21 | 145 | 9.7 | 24.1 | 0.00 | 0.00 | 0.00 | 74 | 1005.4 |
| 20260505040122 | 21 | 167 | 17.7 | 22.5 | 0.00 | 0.00 | 0.00 | 73 | 1005.3 |
| 20260505035618 | 21 | 147 | 17.7 | 24.1 | 0.00 | 0.00 | 0.00 | 73 | 1005.3 |
| 20260505035115 | 22 | 214 | 14.5 | 22.5 | 0.00 | 0.00 | 0.00 | 73 | 1005.1 |
| 20260505034612 | 21 | 144 | 14.5 | 25.7 | 0.00 | 0.00 | 0.00 | 73 | 1005.2 |
| 20260505034108 | 22 | 153 | 17.7 | 20.9 | 0.00 | 0.00 | 0.00 | 73 | 1005.2 |
| 20260505033605 | 22 | 153 | 14.5 | 22.5 | 0.00 | 0.00 | 0.00 | 73 | 1005.4 |
| 20260505033104 | 22 | 152 | 11.3 | 20.9 | 0.00 | 0.00 | 0.00 | 73 | 1005.4 |
| 20260505032601 | 22 | 170 | 16.1 | 17.7 | 0.00 | 0.00 | 0.00 | 73 | 1005.4 |
| 20260505032057 | 21 | 150 | 11.3 | 17.7 | 0.00 | 0.00 | 0.00 | 72 | 1005.3 |
| 20260505031555 | 21 | 157 | 12.9 | 20.9 | 0.00 | 0.00 | 0.00 | 73 | 1005.4 |
| 20260505031051 | 21 | 154 | 16.1 | 17.7 | 0.00 | 0.00 | 0.00 | 73 | 1005.5 |
| 20260505030548 | 21 | 161 | 17.7 | 22.5 | 0.00 | 0.00 | 0.00 | 72 | 1005.5 |
| 20260505030044 | 22 | 160 | 12.9 | 16.1 | 0.00 | 0.00 | 0.00 | 72 | 1005.6 |
| 20260505025540 | 21 | 140 | 8.0 | 16.1 | 0.00 | 0.00 | 0.00 | 72 | 1005.4 |
| 20260505025039 | 22 | 156 | 12.9 | 16.1 | 0.00 | 0.00 | 0.00 | 72 | 1005.3 |
| 20260505024535 | 22 | 143 | 9.7 | 16.1 | 0.00 | 0.00 | 0.00 | 72 | 1005.4 |
| 20260505024032 | 22 | 158 | 11.3 | 14.5 | 0.00 | 0.00 | 0.00 | 71 | 1005.4 |
| 20260505023529 | 22 | 170 | 6.4 | 14.5 | 0.00 | 0.00 | 0.00 | 71 | 1005.5 |
| 20260505023027 | 22 | 161 | 14.5 | 22.5 | 0.00 | 0.00 | 0.00 | 71 | 1005.5 |
| 20260505022525 | 22 | 155 | 9.7 | 12.9 | 0.00 | 0.00 | 0.00 | 71 | 1005.6 |
| 20260505022022 | 22 | 164 | 11.3 | 14.5 | 0.00 | 0.00 | 0.00 | 70 | 1005.3 |
| 20260505021518 | 22 | 160 | 14.5 | 14.5 | 0.00 | 0.00 | 0.00 | 70 | 1005.2 |
| 20260505021015 | 22 | 172 | 12.9 | 14.5 | 0.00 | 0.00 | 0.00 | 70 | 1005.2 |
| 20260505020515 | 22 | 153 | 6.4 | 12.9 | 0.00 | 0.00 | 0.00 | 70 | 1005.4 |
| 20260505020012 | 22 | 154 | 9.7 | 16.1 | 0.00 | 0.00 | 0.00 | 70 | 1005.4 |
| 20260505015509 | 22 | 149 | 8.0 | 14.5 | 0.00 | 0.00 | 0.00 | 69 | 1005.4 |
| 20260505015006 | 22 | 156 | 9.7 | 12.9 | 0.00 | 0.00 | 0.00 | 69 | 1005.4 |
| 20260505014503 | 22 | 157 | 11.3 | 16.1 | 0.00 | 0.00 | 0.00 | 69 | 1005.2 |
| 20260505014000 | 22 | 139 | 12.9 | 12.9 | 0.00 | 0.00 | 0.00 | 68 | 1005.3 |
| 20260505013457 | 22 | 153 | 11.3 | 17.7 | 0.00 | 0.00 | 0.00 | 67 | 1005.4 |
| 20260505012954 | 22 | 151 | 9.7 | 16.1 | 0.00 | 0.00 | 0.00 | 67 | 1005.2 |
| 20260505012452 | 23 | 154 | 9.7 | 20.9 | 0.00 | 0.00 | 0.00 | 67 | 1005.3 |
| 20260505011949 | 23 | 177 | 9.7 | 16.1 | 0.00 | 0.00 | 0.00 | 66 | 1005.1 |
| 20260505011445 | 23 | 162 | 12.9 | 22.5 | 0.00 | 0.00 | 0.00 | 66 | 1005.3 |
| 20260505010942 | 23 | 190 | 9.7 | 22.5 | 0.00 | 0.00 | 0.00 | 65 | 1005.0 |
| 20260505010437 | 23 | 169 | 11.3 | 17.7 | 0.00 | 0.00 | 0.00 | 65 | 1005.2 |
| 20260505005934 | 23 | 130 | 19.3 | 27.4 | 0.00 | 0.00 | 0.00 | 64 | 1005.3 |
| 20260505005431 | 23 | 211 | 14.5 | 24.1 | 0.00 | 0.00 | 0.00 | 64 | 1005.2 |
| 20260505004928 | 23 | 154 | 17.7 | 22.5 | 0.00 | 0.00 | 0.00 | 63 | 1005.1 |
| 20260505004425 | 23 | 171 | 16.1 | 22.5 | 0.00 | 0.00 | 0.00 | 63 | 1005.3 |
| 20260505003921 | 23 | 201 | 20.9 | 29.0 | 0.00 | 0.00 | 0.00 | 63 | 1005.1 |
| 20260505003419 | 24 | 169 | 14.5 | 22.5 | 0.00 | 0.00 | 0.00 | 63 | 1005.1 |
| 20260505002915 | 24 | 164 | 17.7 | 22.5 | 0.00 | 0.00 | 0.00 | 62 | 1005.2 |
| 20260505002412 | 24 | 139 | 14.5 | 24.1 | 0.00 | 0.00 | 0.00 | 62 | 1005.2 |
| 20260505001910 | 25 | 191 | 17.7 | 27.4 | 0.00 | 0.00 | 0.00 | 61 | 1005.5 |
| 20260505001407 | 25 | 163 | 12.9 | 25.7 | 0.00 | 0.00 | 0.00 | 61 | 1005.1 |
| 20260505000904 | 25 | 180 | 17.7 | 22.5 | 0.00 | 0.00 | 0.00 | 61 | 1005.2 |
| 20260505000402 | 25 | 192 | 19.3 | 22.5 | 0.00 | 0.00 | 0.00 | 60 | 1005.4 |
| 20260504235858 | 25 | 173 | 20.9 | 29.0 | 0.00 | 0.00 | 0.00 | 60 | 1005.2 |
| 20260504235355 | 25 | 201 | 14.5 | 25.7 | 0.00 | 0.00 | 0.00 | 60 | 1005.3 |
| 20260504234851 | 25 | 197 | 22.5 | 25.7 | 0.00 | 0.00 | 0.00 | 60 | 1005.6 |
| 20260504234349 | 25 | 180 | 14.5 | 20.9 | 0.00 | 0.00 | 0.00 | 60 | 1005.4 |
| 20260504233846 | 25 | 163 | 17.7 | 25.7 | 0.00 | 0.00 | 0.00 | 59 | 1005.5 |
| 20260504233341 | 25 | 187 | 20.9 | 27.4 | 0.00 | 0.00 | 0.00 | 58 | 1005.4 |
| 20260504232839 | 25 | 178 | 17.7 | 29.0 | 0.00 | 0.00 | 0.00 | 58 | 1005.4 |
| 20260504232336 | 25 | 191 | 22.5 | 38.6 | 0.00 | 0.00 | 0.00 | 57 | 1005.5 |
| 20260504231832 | 25 | 164 | 22.5 | 30.6 | 0.00 | 0.00 | 0.00 | 57 | 1005.6 |
| 20260504231329 | 26 | 175 | 19.3 | 27.4 | 0.00 | 0.00 | 0.00 | 56 | 1005.5 |
| 20260504230825 | 26 | 196 | 16.1 | 22.5 | 0.00 | 0.00 | 0.00 | 57 | 1005.8 |
| 20260504230323 | 26 | 150 | 24.1 | 33.8 | 0.00 | 0.00 | 0.00 | 55 | 1005.9 |
| 20260504225822 | 26 | 150 | 24.1 | 29.0 | 0.00 | 0.00 | 0.00 | 55 | 1006.0 |
| 20260504225317 | 26 | 146 | 17.7 | 20.9 | 0.00 | 0.00 | 0.00 | 55 | 1006.0 |
| 20260504224815 | 26 | 167 | 17.7 | 24.1 | 0.00 | 0.00 | 0.00 | 55 | 1006.0 |
| 20260504224312 | 26 | 171 | 19.3 | 35.4 | 0.00 | 0.00 | 0.00 | 55 | 1005.9 |
| 20260504223808 | 26 | 200 | 17.7 | 29.0 | 0.00 | 0.00 | 0.00 | 55 | 1005.6 |
| 20260504223304 | 26 | 165 | 12.9 | 25.7 | 0.00 | 0.00 | 0.00 | 54 | 1005.9 |
| 20260504222801 | 26 | 173 | 17.7 | 30.6 | 0.00 | 0.00 | 0.00 | 54 | 1006.2 |
| 20260504222258 | 26 | 154 | 17.7 | 30.6 | 0.00 | 0.00 | 0.00 | 53 | 1006.0 |
| 20260504221756 | 26 | 159 | 19.3 | 25.7 | 0.00 | 0.00 | 0.00 | 53 | 1005.9 |
| 20260504221253 | 26 | 156 | 14.5 | 29.0 | 0.00 | 0.00 | 0.00 | 52 | 1006.2 |
| 20260504220749 | 26 | 159 | 19.3 | 33.8 | 0.00 | 0.00 | 0.00 | 52 | 1006.1 |
| 20260504220246 | 26 | 160 | 14.5 | 27.4 | 0.00 | 0.00 | 0.00 | 54 | 1006.3 |
| 20260504215744 | 26 | 149 | 16.1 | 24.1 | 0.00 | 0.00 | 0.00 | 54 | 1006.4 |
| 20260504215240 | 25 | 187 | 24.1 | 30.6 | 0.00 | 0.00 | 0.00 | 53 | 1006.2 |
| 20260504214736 | 26 | 172 | 16.1 | 33.8 | 0.00 | 0.00 | 0.00 | 52 | 1006.5 |
| 20260504214232 | 26 | 172 | 17.7 | 35.4 | 0.00 | 0.00 | 0.00 | 53 | 1006.4 |
| 20260504213729 | 26 | 165 | 24.1 | 29.0 | 0.00 | 0.00 | 0.00 | 52 | 1006.6 |
| 20260504213226 | 26 | 165 | 27.4 | 37.0 | 0.00 | 0.00 | 0.00 | 51 | 1006.8 |
| 20260504212723 | 26 | 188 | 29.0 | 35.4 | 0.00 | 0.00 | 0.00 | 52 | 1006.7 |
| 20260504212220 | 25 | 182 | 19.3 | 37.0 | 0.00 | 0.00 | 0.00 | 53 | 1007.1 |
| 20260504211717 | 26 | 158 | 22.5 | 30.6 | 0.00 | 0.00 | 0.00 | 51 | 1006.9 |
| 20260504211213 | 26 | 169 | 14.5 | 27.4 | 0.00 | 0.00 | 0.00 | 52 | 1007.3 |
| 20260504210711 | 26 | 201 | 16.1 | 24.1 | 0.00 | 0.00 | 0.00 | 52 | 1007.1 |
| 20260504210207 | 26 | 192 | 22.5 | 35.4 | 0.00 | 0.00 | 0.00 | 51 | 1007.3 |
| 20260504205705 | 26 | 192 | 24.1 | 29.0 | 0.00 | 0.00 | 0.00 | 51 | 1007.5 |
| 20260504205201 | 26 | 169 | 24.1 | 33.8 | 0.00 | 0.00 | 0.00 | 50 | 1007.5 |
| 20260504204700 | 26 | 141 | 16.1 | 29.0 | 0.00 | 0.00 | 0.00 | 51 | 1007.6 |
| 20260504204159 | 26 | 203 | 22.5 | 35.4 | 0.00 | 0.00 | 0.00 | 50 | 1007.8 |
| 20260504203657 | 26 | 126 | 12.9 | 35.4 | 0.00 | 0.00 | 0.00 | 51 | 1007.8 |
| 20260504203154 | 26 | 159 | 22.5 | 35.4 | 0.00 | 0.00 | 0.00 | 49 | 1007.9 |
| 20260504202654 | 26 | 138 | 22.5 | 35.4 | 0.00 | 0.00 | 0.00 | 48 | 1007.9 |
| 20260504202152 | 26 | 154 | 14.5 | 30.6 | 0.00 | 0.00 | 0.00 | 50 | 1008.4 |
| 20260504201649 | 26 | 175 | 22.5 | 30.6 | 0.00 | 0.00 | 0.00 | 48 | 1008.1 |
| 20260504201146 | 26 | 184 | 16.1 | 30.6 | 0.00 | 0.00 | 0.00 | 50 | 1008.2 |
| 20260504200643 | 25 | 136 | 20.9 | 33.8 | 0.00 | 0.00 | 0.00 | 49 | 1008.4 |
| 20260504200140 | 25 | 192 | 29.0 | 38.6 | 0.00 | 0.00 | 0.00 | 48 | 1008.5 |
| 20260504195636 | 25 | 199 | 16.1 | 30.6 | 0.00 | 0.00 | 0.00 | 49 | 1008.5 |
| 20260504195132 | 25 | 186 | 24.1 | 35.4 | 0.00 | 0.00 | 0.00 | 48 | 1008.7 |
| 20260504194629 | 25 | 182 | 17.7 | 33.8 | 0.00 | 0.00 | 0.00 | 49 | 1008.7 |
| 20260504194125 | 26 | 178 | 22.5 | 30.6 | 0.00 | 0.00 | 0.00 | 47 | 1008.6 |
| 20260504193622 | 25 | 164 | 25.7 | 33.8 | 0.00 | 0.00 | 0.00 | 47 | 1008.8 |
| 20260504193120 | 25 | 176 | 24.1 | 30.6 | 0.00 | 0.00 | 0.00 | 48 | 1009.1 |
| 20260504192618 | 25 | 141 | 19.3 | 24.1 | 0.00 | 0.00 | 0.00 | 48 | 1009.0 |
| 20260504192115 | 25 | 194 | 24.1 | 29.0 | 0.00 | 0.00 | 0.00 | 48 | 1009.2 |
| 20260504191614 | 25 | 183 | 20.9 | 29.0 | 0.00 | 0.00 | 0.00 | 48 | 1009.2 |
| 20260504191109 | 25 | 157 | 27.4 | 35.4 | 0.00 | 0.00 | 0.00 | 47 | 1009.2 |
| 20260504190606 | 25 | 189 | 17.7 | 35.4 | 0.00 | 0.00 | 0.00 | 47 | 1009.3 |
| 20260504185559 | 25 | 201 | 19.3 | 35.4 | 0.00 | 0.00 | 0.00 | 48 | 1009.5 |
| 20260504185055 | 25 | 195 | 16.1 | 35.4 | 0.00 | 0.00 | 0.00 | 49 | 1009.3 |
| 20260504184551 | 25 | 170 | 20.9 | 30.6 | 0.00 | 0.00 | 0.00 | 49 | 1009.5 |
| 20260504184046 | 25 | 202 | 22.5 | 33.8 | 0.00 | 0.00 | 0.00 | 47 | 1009.7 |
| 20260504183544 | 24 | 164 | 24.1 | 35.4 | 0.00 | 0.00 | 0.00 | 48 | 1009.6 |
| 20260504183042 | 24 | 164 | 25.7 | 33.8 | 0.00 | 0.00 | 0.00 | 49 | 1009.9 |
| 20260504182538 | 23 | 183 | 22.5 | 33.8 | 0.00 | 0.00 | 0.00 | 48 | 1009.9 |
| 20260504182036 | 23 | 158 | 22.5 | 40.2 | 0.00 | 0.00 | 0.00 | 49 | 1010.1 |
| 20260504181533 | 24 | 180 | 24.1 | 38.6 | 0.00 | 0.00 | 0.00 | 49 | 1010.0 |
| 20260504181031 | 24 | 145 | 27.4 | 33.8 | 0.00 | 0.00 | 0.00 | 48 | 1010.2 |
| 20260504180530 | 23 | 169 | 17.7 | 29.0 | 0.00 | 0.00 | 0.00 | 48 | 1010.3 |
| 20260504180028 | 24 | 179 | 22.5 | 35.4 | 0.00 | 0.00 | 0.00 | 48 | 1010.2 |
| 20260504175525 | 24 | 155 | 19.3 | 25.7 | 0.00 | 0.00 | 0.00 | 49 | 1010.4 |
| 20260504175022 | 23 | 173 | 25.7 | 30.6 | 0.00 | 0.00 | 0.00 | 50 | 1010.6 |
| 20260504174520 | 23 | 152 | 22.5 | 29.0 | 0.00 | 0.00 | 0.00 | 50 | 1010.4 |
| 20260504174016 | 23 | 180 | 16.1 | 37.0 | 0.00 | 0.00 | 0.00 | 50 | 1010.5 |
| 20260504173513 | 23 | 164 | 25.7 | 30.6 | 0.00 | 0.00 | 0.00 | 50 | 1011.0 |
| 20260504173011 | 23 | 150 | 14.5 | 30.6 | 0.00 | 0.00 | 0.00 | 51 | 1011.0 |
| 20260504172507 | 23 | 192 | 16.1 | 22.5 | 0.00 | 0.00 | 0.00 | 51 | 1010.8 |
| 20260504172003 | 23 | 167 | 14.5 | 30.6 | 0.00 | 0.00 | 0.00 | 51 | 1011.0 |
| 20260504171500 | 23 | 183 | 17.7 | 25.7 | 0.00 | 0.00 | 0.00 | 51 | 1011.2 |
| 20260504170957 | 23 | 198 | 19.3 | 30.6 | 0.00 | 0.00 | 0.00 | 50 | 1011.3 |
| 20260504170453 | 23 | 204 | 24.1 | 33.8 | 0.00 | 0.00 | 0.00 | 50 | 1011.4 |
| 20260504160413 | 21 | 195 | 30.6 | 38.6 | 0.00 | 0.00 | 0.00 | 51 | 1011.7 |